AirNav   Everest Fuels
 
 1021 users online  

X58 Indiantown Airport
Indiantown, Florida, USA

GOING TO INDIANTOWN?


FAA INFORMATION EFFECTIVE 21 MAY 2020

Location

FAA Identifier: X58
Lat/Long: 27-02-15.0000N 080-26-27.6000W
27-02.250000N 080-26.460000W
27.0375000,-80.4410000
(estimated)
Elevation: 30 ft. / 9 m (estimated)
Variation: 03W (1985)
From city: 2 miles NE of INDIANTOWN, FL
Time zone: UTC -4 (UTC -5 during Standard Time)
Zip code: 34956

Airport Operations

Airport use: Open to the public
Activation date: 02/1963
Control tower: no
ARTCC: MIAMI CENTER
FSS: MIAMI FLIGHT SERVICE STATION
NOTAMs facility: MIA (NOTAM-D service available)
Attendance: UNATNDD
Wind indicator: yes
Segmented circle: no
Landing fee: yes

Airport Communications

CTAF/UNICOM: 123.0
WX AWOS-3 at SUA (15 nm NE): PHONE 772-692-7399
WX AWOS-3 at F45 (16 nm SE): 119.975 (561-630-6932)

Nearby radio navigation aids

VOR radial/distance  VOR name  Freq  Var
PHKr041/20.3PAHOKEE VOR/DME115.4000E
PBIr321/28.6PALM BEACH VORTAC115.7003W
TRVr183/38.5TREASURE VORTAC117.3007W

 
NDB name  Hdg/Dist  Freq  Var  ID
UNITED329/9.640505WUTX ..- - -..-
FORT PIERCE195/27.227507WFPR ..-. .--. .-.

Airport Services

Fuel available: 100LL
FUEL AVBL WITH CREDIT CARD ONLY.
Parking: hangars and tiedowns
Airframe service: MAJOR
Powerplant service: MAJOR
Bottled oxygen: NONE
Bulk oxygen: NONE

Runway Information

Runway 13/31

Dimensions: 6300 x 75 ft. / 1920 x 23 m
Surface: turf, in good condition
Runway edge markings: RY 13 /31 DSPLCD THLDS & RY SIDES MKD WITH WHITE PAVING STONES AND WHITE PVC MARKERS.
RUNWAY 13  RUNWAY 31
Latitude: 27-02.607667N27-01.891333N
Longitude: 080-26.881167W080-26.039000W
Traffic pattern: leftleft
Displaced threshold: 600 ft.300 ft.
Obstructions: 37 ft. tree, 1175 ft. from runway, 32:1 slope to clear14 ft. road, 280 ft. from runway, 125 ft. right of centerline, 20:1 slope to clear

Airport Ownership and Management from official FAA records

Ownership: Privately-owned
Owner: INDIANTOWN INTERNATIONAL INC.
PO BOX 1234
INDIANTOWN, FL 34956-1234
Phone 772-597-5800
CONTACT PERSON: CLYDE DAWSON
Manager: CLYDE DAWSON
PO BOX 1234
INDIANTOWN, FL 34956-1234
Phone 772-597-5800
AIRPORT PHYSICAL ADDRESS: 20654 SOUTHWEST CITRUS BOULEVARD, INDIANTOWN FL 34956 FAX: 772-597-5805

Airport Operational Statistics

Aircraft based on the field: 64
Single engine airplanes: 57
Multi engine airplanes: 2
Helicopters: 5
    
Aircraft operations: avg 96/week *
80% local general aviation
20% transient general aviation
* for 12-month period ending 10 January 2018

Additional Remarks

STANDING WATER AT RY EDGES AFTER RAIN.
PPR FOR TSNT ACFT TRNG CALL 772-597-5800
LANDING FEE CURRENTLY IN EFFECT.
$10 LANDING FEE WAIVED WITH FUEL PURCHASE.
NO TOUCH AND GO LNDGS.
ARPT CLSD EXC TO POWERED F/W ACFT.
FOR CD CTC PALM BEACH APCH AT 561-275-1430

Instrument Procedures

There are no published instrument procedures at X58.

Some nearby airports with instrument procedures:

06FA - William P Gwinn Airport (10 nm SE)
KSUA - Witham Field Airport (15 nm NE)
F45 - North Palm Beach County General Aviation Airport (16 nm SE)
KPHK - Palm Beach County Glades Airport (20 nm SW)
KOBE - Okeechobee County Airport (26 nm NW)
 
Loc | Ops | Rwys | IFR | FBO | Links
Com | Nav | Svcs | Stats | Notes

Reliance Aviation
AirBoss

 
Area around X58 (Indiantown Airport)
 
Road maps at: MapQuest Bing Google
 
Aerial photo
WARNING: Photo may not be current or correct
Aerial photo of X58 (Indiantown Airport)
Photo taken 17-Jun-2010

Do you have a better or more recent aerial photo of Indiantown Airport that you would like to share? If so, please send us your photo.

 
Sectional chart

 
Airport distance calculator
Flying to Indiantown Airport? Find the distance to fly.

From to X58

Sunrise and sunset
Times for 24-May-2020
 Local
(UTC-4)
 Zulu
(UTC)
Morning civil twilight06:0510:05
Sunrise06:3010:30
Sunset20:0700:07
Evening civil twilight20:3300:33

Current date and time
Zulu (UTC)  24-May-2020 21:28:42
Local (UTC-4)  24-May-2020 17:28:42
 
METAR
KSUA 
15nm NE 
242050Z 10005KT 5SM -RA BKN015 OVC021 25/23 A2998
KF45 
16nm SE 
242105Z AUTO 09012KT 3SM -RA FEW014 FEW050 24/24 A2997 RMK AO2 P0001
KOBE 
26nm NW 
242115Z AUTO 08004KT 10SM -RA CLR 24/22 A2995 RMK AO2
KFPR 
28nm N 
242053Z 09010KT 10SM FEW025 SCT110 27/23 A2997 RMK AO2 RAE36 SLP147 P0001 60001 T02670233 58017
KPBI 
28nm SE 
242122Z 08009KT 2 1/2SM R10L/4500VP6000FT RA BR BKN011CB BKN030 OVC049 24/23 A2996 RMK AO2 CB OHD SW-NW MOV NW CB DSNT NE SE P0027 T02440228
TAF
KSUA 
15nm NE 
241724Z 2418/2518 12012G18KT P6SM VCSH SCT025 BKN035 OVC050 TEMPO 2418/2421 P6SM SHRA SCT020 BKN035 OVC050 FM250000 10013KT P6SM VCSH SCT025 BKN040 OVC070 FM250900 11009KT P6SM VCSH SCT030 OVC070 FM251200 12012KT 5SM RA VCTS SCT030CB OVC050
NOTAMs
Click for the latest NOTAMs
NOTAMs are issued by the DoD/FAA and will open in a separate window not controlled by AirNav.

 

 
 

FBO, Fuel Providers, and Aircraft Ground Support

  
 Business Name 
 
 Contact 
 
 Services / Description 
 
Fuel Prices
 
Comments
  
X-58, Inc. 772-597-5800
no information available

If you are affiliated with X-58, Inc. and would like to show here your services, contact info, web link, logo, and more, click here
100LL
SS $5.10 
 Updated 23-May-2019
 
   write
SS=Self service
Update Fuel Prices
 

Would you like to see your business listed on this page?

 If your business provides an interesting product or service to pilots, flight crews, aircraft, or users of the Indiantown Airport, you should consider listing it here.  To start the listing process, click on the button below
 
Add a business
 

Other Pages about Indiantown Airport

Update a link
 
Copyright © AirNav, LLC. All rights reserved. Privacy Policy  Contact